Year,Month,Day,Hour,Minute,Value (Times are PST for temperature in C)
2018,04,26,00,00,12.80
2018,04,26,00,01,12.80
2018,04,26,00,02,12.80
2018,04,26,00,03,12.80
2018,04,26,00,04,12.70
2018,04,26,00,05,12.70
2018,04,26,00,06,12.70
2018,04,26,00,07,12.60
2018,04,26,00,08,12.60
2018,04,26,00,09,12.50
2018,04,26,00,10,12.50
2018,04,26,00,11,12.50
2018,04,26,00,12,12.40
2018,04,26,00,13,12.40
2018,04,26,00,14,12.30
2018,04,26,00,15,12.30
2018,04,26,00,16,12.30
2018,04,26,00,17,12.20
2018,04,26,00,18,12.20
2018,04,26,00,19,12.20
2018,04,26,00,20,12.10
2018,04,26,00,21,12.10
2018,04,26,00,22,12.00
2018,04,26,00,23,12.00
2018,04,26,00,24,12.00
2018,04,26,00,25,11.90
2018,04,26,00,26,11.90
2018,04,26,00,27,11.90
2018,04,26,00,28,11.80
2018,04,26,00,29,11.80
2018,04,26,00,30,11.80
2018,04,26,00,31,11.80
2018,04,26,00,32,11.80
2018,04,26,00,33,11.70
2018,04,26,00,34,11.70
2018,04,26,00,35,11.70
2018,04,26,00,36,11.70
2018,04,26,00,37,11.60
2018,04,26,00,38,11.60
2018,04,26,00,39,11.60
2018,04,26,00,40,11.60
2018,04,26,00,41,11.60
2018,04,26,00,42,11.60
2018,04,26,00,43,11.60
2018,04,26,00,44,11.60
2018,04,26,00,45,11.60
2018,04,26,00,46,11.60
2018,04,26,00,47,11.60
2018,04,26,00,48,11.60
2018,04,26,00,49,11.60
2018,04,26,00,50,11.60
2018,04,26,00,51,11.60
2018,04,26,00,52,11.60
2018,04,26,00,53,11.60
2018,04,26,00,54,11.40
2018,04,26,00,55,11.40
2018,04,26,00,56,11.50
2018,04,26,00,57,11.50
2018,04,26,00,58,11.50
2018,04,26,00,59,11.40
2018,04,26,01,00,11.40
2018,04,26,01,01,11.40
2018,04,26,01,02,11.40
2018,04,26,01,03,11.40
2018,04,26,01,04,11.40
2018,04,26,01,05,11.30
2018,04,26,01,06,11.30
2018,04,26,01,07,11.30
2018,04,26,01,08,11.20
2018,04,26,01,09,11.20
2018,04,26,01,10,11.20
2018,04,26,01,11,11.10
2018,04,26,01,12,11.10
2018,04,26,01,13,11.10
2018,04,26,01,14,11.10
2018,04,26,01,15,11.10
2018,04,26,01,16,11.10
2018,04,26,01,17,11.00
2018,04,26,01,18,10.90
2018,04,26,01,19,10.90
2018,04,26,01,20,10.90
2018,04,26,01,21,10.90
2018,04,26,01,22,10.90
2018,04,26,01,23,10.90
2018,04,26,01,24,10.90
2018,04,26,01,25,10.90
2018,04,26,01,26,10.90
2018,04,26,01,27,10.90
2018,04,26,01,28,10.90
2018,04,26,01,29,10.90
2018,04,26,01,30,10.90
2018,04,26,01,31,10.90
2018,04,26,01,32,10.90
2018,04,26,01,33,10.90
2018,04,26,01,34,10.90
2018,04,26,01,35,10.90
2018,04,26,01,36,10.90
2018,04,26,01,37,10.90
2018,04,26,01,38,10.90
2018,04,26,01,39,10.90
2018,04,26,01,40,10.90
2018,04,26,01,41,10.90
2018,04,26,01,42,10.90
2018,04,26,01,43,10.90
2018,04,26,01,44,10.80
2018,04,26,01,45,10.80
2018,04,26,01,46,10.80
2018,04,26,01,47,10.80
2018,04,26,01,48,10.80
2018,04,26,01,49,10.70
2018,04,26,01,50,10.70
2018,04,26,01,51,10.70
2018,04,26,01,52,10.70
2018,04,26,01,53,10.60
2018,04,26,01,54,10.60
2018,04,26,01,55,10.60
2018,04,26,01,56,10.60
2018,04,26,01,57,10.60
2018,04,26,01,58,10.60
2018,04,26,01,59,10.60
2018,04,26,02,00,10.60
2018,04,26,02,01,10.60
2018,04,26,02,02,10.60
2018,04,26,02,03,10.60
2018,04,26,02,04,10.60
2018,04,26,02,05,10.60
2018,04,26,02,06,10.60
2018,04,26,02,07,10.60
2018,04,26,02,08,10.60
2018,04,26,02,09,10.60
2018,04,26,02,10,10.60
2018,04,26,02,11,10.60
2018,04,26,02,12,10.60
2018,04,26,02,13,10.70
2018,04,26,02,14,10.70
2018,04,26,02,15,10.70
2018,04,26,02,16,10.70
2018,04,26,02,17,10.80
2018,04,26,02,18,10.80
2018,04,26,02,19,10.80
2018,04,26,02,20,10.80
2018,04,26,02,21,10.70
2018,04,26,02,22,10.70
2018,04,26,02,23,10.70
2018,04,26,02,24,10.70
2018,04,26,02,25,10.70
2018,04,26,02,26,10.60
2018,04,26,02,27,10.60
2018,04,26,02,28,10.60
2018,04,26,02,29,10.60
2018,04,26,02,30,10.60
2018,04,26,02,31,10.60
2018,04,26,02,32,10.60
2018,04,26,02,33,10.60
2018,04,26,02,34,10.60
2018,04,26,02,35,10.60
2018,04,26,02,36,10.60
2018,04,26,02,37,10.60
2018,04,26,02,38,10.60
2018,04,26,02,39,10.60
2018,04,26,02,40,10.60
2018,04,26,02,41,10.60
2018,04,26,02,42,10.60
2018,04,26,02,43,10.60
2018,04,26,02,44,10.60
2018,04,26,02,45,10.60
2018,04,26,02,46,10.60
2018,04,26,02,47,10.60
2018,04,26,02,48,10.60
2018,04,26,02,49,10.60
2018,04,26,02,50,10.60
2018,04,26,02,51,10.60
2018,04,26,02,52,10.60
2018,04,26,02,53,10.60
2018,04,26,02,54,10.60
2018,04,26,02,55,10.60
2018,04,26,02,56,10.60
2018,04,26,02,57,10.60
2018,04,26,02,58,10.60
2018,04,26,02,59,10.60
2018,04,26,03,00,10.60
2018,04,26,03,01,10.60
2018,04,26,03,02,10.60
2018,04,26,03,03,10.60
2018,04,26,03,04,10.60
2018,04,26,03,05,10.60
2018,04,26,03,06,10.60
2018,04,26,03,07,10.60
2018,04,26,03,08,10.60
2018,04,26,03,09,10.60
2018,04,26,03,10,10.50
2018,04,26,03,11,10.40
2018,04,26,03,12,10.40
2018,04,26,03,13,10.40
2018,04,26,03,14,10.40
2018,04,26,03,15,10.40
2018,04,26,03,16,10.40
2018,04,26,03,17,10.40
2018,04,26,03,18,10.40
2018,04,26,03,19,10.30
2018,04,26,03,20,10.30
2018,04,26,03,21,10.30
2018,04,26,03,22,10.30
2018,04,26,03,23,10.20
2018,04,26,03,24,10.20
2018,04,26,03,25,10.20
2018,04,26,03,26,10.20
2018,04,26,03,27,10.20
2018,04,26,03,28,10.10
2018,04,26,03,29,10.10
2018,04,26,03,30,10.10
2018,04,26,03,31,10.10
2018,04,26,03,32,10.10
2018,04,26,03,33,10.10
2018,04,26,03,34,10.10
2018,04,26,03,35,10.10
2018,04,26,03,36,10.00
2018,04,26,03,37,9.90
2018,04,26,03,38,9.90
2018,04,26,03,39,9.90
2018,04,26,03,40,9.90
2018,04,26,03,41,9.90
2018,04,26,03,42,9.90
2018,04,26,03,43,9.90
2018,04,26,03,44,9.80
2018,04,26,03,45,9.80
2018,04,26,03,46,9.80
2018,04,26,03,47,9.80
2018,04,26,03,48,9.80
2018,04,26,03,49,9.80
2018,04,26,03,50,9.80
2018,04,26,03,51,9.80
2018,04,26,03,52,9.80
2018,04,26,03,53,9.80
2018,04,26,03,54,9.80
2018,04,26,03,55,9.80
2018,04,26,03,56,9.80
2018,04,26,03,57,9.80
2018,04,26,03,58,9.80
2018,04,26,03,59,9.90
2018,04,26,04,00,9.90
2018,04,26,04,01,9.90
2018,04,26,04,02,9.90
2018,04,26,04,03,9.90
2018,04,26,04,04,9.90
2018,04,26,04,05,9.90
2018,04,26,04,06,9.90
2018,04,26,04,07,9.90
2018,04,26,04,08,9.90
2018,04,26,04,09,10.00
2018,04,26,04,10,10.10
2018,04,26,04,11,10.10
2018,04,26,04,12,10.10
2018,04,26,04,13,10.10
2018,04,26,04,14,10.10
2018,04,26,04,15,10.10
2018,04,26,04,16,10.10
2018,04,26,04,17,10.10
2018,04,26,04,18,10.10
2018,04,26,04,19,10.10
2018,04,26,04,20,10.20
2018,04,26,04,21,10.20
2018,04,26,04,22,10.20
2018,04,26,04,23,10.30
2018,04,26,04,24,10.30
2018,04,26,04,25,10.40
2018,04,26,04,26,10.40
2018,04,26,04,27,10.40
2018,04,26,04,28,10.50
2018,04,26,04,29,10.60
2018,04,26,04,30,10.60
2018,04,26,04,31,10.60
2018,04,26,04,32,10.60
2018,04,26,04,33,10.60
2018,04,26,04,34,10.60
2018,04,26,04,35,10.60
2018,04,26,04,36,10.70
2018,04,26,04,37,10.70
2018,04,26,04,38,10.70
2018,04,26,04,39,10.70
2018,04,26,04,40,10.70
2018,04,26,04,41,10.70
2018,04,26,04,42,10.70
2018,04,26,04,43,10.70
2018,04,26,04,44,10.70
2018,04,26,04,45,10.70
2018,04,26,04,46,10.80
2018,04,26,04,47,10.80
2018,04,26,04,48,10.80
2018,04,26,04,49,10.80
2018,04,26,04,50,10.80
2018,04,26,04,51,10.80
2018,04,26,04,52,10.80
2018,04,26,04,53,10.70
2018,04,26,04,54,10.70
2018,04,26,04,55,10.70
2018,04,26,04,56,10.70
2018,04,26,04,57,10.70
2018,04,26,04,58,10.70
2018,04,26,04,59,10.70
2018,04,26,05,00,10.60
2018,04,26,05,01,10.60
2018,04,26,05,02,10.60
2018,04,26,05,03,10.60
2018,04,26,05,04,10.60
2018,04,26,05,05,10.60
2018,04,26,05,06,10.60
2018,04,26,05,07,10.60
2018,04,26,05,08,10.60
2018,04,26,05,09,10.50
2018,04,26,05,10,10.40
2018,04,26,05,11,10.40
2018,04,26,05,12,10.40
2018,04,26,05,13,10.50
2018,04,26,05,14,10.50
2018,04,26,05,15,10.50
2018,04,26,05,16,10.60
2018,04,26,05,17,10.60
2018,04,26,05,18,10.60
2018,04,26,05,19,10.60
2018,04,26,05,20,10.60
2018,04,26,05,21,10.60
2018,04,26,05,22,10.60
2018,04,26,05,23,10.60
2018,04,26,05,24,10.60
2018,04,26,05,25,10.60
2018,04,26,05,26,10.60
2018,04,26,05,27,10.60
2018,04,26,05,28,10.70
2018,04,26,05,29,10.70
2018,04,26,05,30,10.70
2018,04,26,05,31,10.80
2018,04,26,05,32,10.80
2018,04,26,05,33,10.80
2018,04,26,05,34,10.90
2018,04,26,05,35,10.90
2018,04,26,05,36,10.90
2018,04,26,05,37,10.90
2018,04,26,05,38,11.00
2018,04,26,05,39,11.10
2018,04,26,05,40,11.10
2018,04,26,05,41,11.10
2018,04,26,05,42,11.20
2018,04,26,05,43,11.20
2018,04,26,05,44,11.20
2018,04,26,05,45,11.20
2018,04,26,05,46,11.20
2018,04,26,05,47,11.20
2018,04,26,05,48,11.20
2018,04,26,05,49,11.30
2018,04,26,05,50,11.30
2018,04,26,05,51,11.30
2018,04,26,05,52,11.30
2018,04,26,05,53,11.30
2018,04,26,05,54,11.30
2018,04,26,05,55,11.30
2018,04,26,05,56,11.30
2018,04,26,05,57,11.30
2018,04,26,05,58,11.30
2018,04,26,05,59,11.40
2018,04,26,06,00,11.40
2018,04,26,06,01,11.40
2018,04,26,06,02,11.40
2018,04,26,06,03,11.40
2018,04,26,06,04,11.40
2018,04,26,06,05,11.40
2018,04,26,06,06,11.40
2018,04,26,06,07,11.40
2018,04,26,06,08,11.40
2018,04,26,06,09,11.40
2018,04,26,06,10,11.40
2018,04,26,06,11,11.40
2018,04,26,06,12,11.40
2018,04,26,06,13,11.40
2018,04,26,06,14,11.40
2018,04,26,06,15,11.30
2018,04,26,06,16,11.30
2018,04,26,06,17,11.20
2018,04,26,06,18,11.20
2018,04,26,06,19,11.10
2018,04,26,06,20,11.10
2018,04,26,06,21,11.10
2018,04,26,06,22,11.00
2018,04,26,06,23,10.90
2018,04,26,06,24,10.90
2018,04,26,06,25,10.90
2018,04,26,06,26,10.90
2018,04,26,06,27,10.80
2018,04,26,06,28,10.80
2018,04,26,06,29,10.70
2018,04,26,06,30,10.70
2018,04,26,06,31,10.60
2018,04,26,06,32,10.60
2018,04,26,06,33,10.60
2018,04,26,06,34,10.60
2018,04,26,06,35,10.50
2018,04,26,06,36,10.40
2018,04,26,06,37,10.40
2018,04,26,06,38,10.40
2018,04,26,06,39,10.40
2018,04,26,06,40,10.30
2018,04,26,06,41,10.30
2018,04,26,06,42,10.30
2018,04,26,06,43,10.30
2018,04,26,06,44,10.20
2018,04,26,06,45,10.20
2018,04,26,06,46,10.20
2018,04,26,06,47,10.30
2018,04,26,06,48,10.30
2018,04,26,06,49,10.30
2018,04,26,06,50,10.30
2018,04,26,06,51,10.30
2018,04,26,06,52,10.40
2018,04,26,06,53,10.40
2018,04,26,06,54,10.40
2018,04,26,06,55,10.50
2018,04,26,06,56,10.60
2018,04,26,06,57,10.60
2018,04,26,06,58,10.70
2018,04,26,06,59,10.80
2018,04,26,07,00,10.90
2018,04,26,07,01,10.90
2018,04,26,07,02,11.00
2018,04,26,07,03,11.10
2018,04,26,07,04,11.20
2018,04,26,07,05,11.30
2018,04,26,07,06,11.30
2018,04,26,07,07,11.40
2018,04,26,07,08,11.40
2018,04,26,07,09,11.40
2018,04,26,07,10,11.40
2018,04,26,07,11,11.50
2018,04,26,07,12,11.60
2018,04,26,07,13,11.60
2018,04,26,07,14,11.60
2018,04,26,07,15,11.60
2018,04,26,07,16,11.60
2018,04,26,07,17,11.60
2018,04,26,07,18,11.60
2018,04,26,07,19,11.60
2018,04,26,07,20,11.60
2018,04,26,07,21,11.60
2018,04,26,07,22,11.60
2018,04,26,07,23,11.60
2018,04,26,07,24,11.60
2018,04,26,07,25,11.60
2018,04,26,07,26,11.60
2018,04,26,07,27,11.60
2018,04,26,07,28,11.60
2018,04,26,07,29,11.60
2018,04,26,07,30,11.70
2018,04,26,07,31,11.70
2018,04,26,07,32,11.70
2018,04,26,07,33,11.70
2018,04,26,07,34,11.70
2018,04,26,07,35,11.70
2018,04,26,07,36,11.80
2018,04,26,07,37,11.80
2018,04,26,07,38,11.80
2018,04,26,07,39,11.80
2018,04,26,07,40,11.80
2018,04,26,07,41,11.80
2018,04,26,07,42,11.80
2018,04,26,07,43,11.80
2018,04,26,07,44,11.90
2018,04,26,07,45,11.90
2018,04,26,07,46,12.00
2018,04,26,07,47,12.00
2018,04,26,07,48,12.10
2018,04,26,07,49,12.10
2018,04,26,07,50,12.30
2018,04,26,07,51,12.40
2018,04,26,07,52,12.50
2018,04,26,07,53,12.60
2018,04,26,07,54,12.80
2018,04,26,07,55,13.00
2018,04,26,07,56,13.10
2018,04,26,07,57,13.20
2018,04,26,07,58,13.30
2018,04,26,07,59,13.40
2018,04,26,08,00,13.50
2018,04,26,08,01,13.60
2018,04,26,08,02,13.60
2018,04,26,08,03,13.70
2018,04,26,08,04,13.80
2018,04,26,08,05,14.00
2018,04,26,08,06,14.20
2018,04,26,08,07,14.30
2018,04,26,08,08,14.50
2018,04,26,08,09,14.60
2018,04,26,08,10,14.70
2018,04,26,08,11,14.80
2018,04,26,08,12,15.00
2018,04,26,08,13,15.10
2018,04,26,08,14,15.10
2018,04,26,08,15,15.20
2018,04,26,08,16,15.30
2018,04,26,08,17,15.30
2018,04,26,08,18,15.40
2018,04,26,08,19,15.50
2018,04,26,08,20,15.70
2018,04,26,08,21,15.80
2018,04,26,08,22,15.90
2018,04,26,08,23,16.00
2018,04,26,08,24,16.10
2018,04,26,08,25,16.10
2018,04,26,08,26,16.20
2018,04,26,08,27,16.20
2018,04,26,08,28,16.20
2018,04,26,08,29,16.10
2018,04,26,08,30,16.10
2018,04,26,08,31,16.10
2018,04,26,08,32,16.10
2018,04,26,08,33,16.10
2018,04,26,08,34,16.10
2018,04,26,08,35,16.10
2018,04,26,08,36,16.10
2018,04,26,08,37,16.10
2018,04,26,08,38,16.10
2018,04,26,08,39,16.10
2018,04,26,08,40,16.10
2018,04,26,08,41,16.10
2018,04,26,08,42,16.10
2018,04,26,08,43,16.20
2018,04,26,08,44,16.20
2018,04,26,08,45,16.20
2018,04,26,08,46,16.20
2018,04,26,08,47,16.30
2018,04,26,08,48,16.30
2018,04,26,08,49,16.30
2018,04,26,08,50,16.30
2018,04,26,08,51,16.30
2018,04,26,08,52,16.30
2018,04,26,08,53,16.30
2018,04,26,08,54,16.30
2018,04,26,08,55,16.30
2018,04,26,08,56,16.30
2018,04,26,08,57,16.40
2018,04,26,08,58,16.40
2018,04,26,08,59,16.40
2018,04,26,09,00,16.40
2018,04,26,09,01,16.50
2018,04,26,09,02,16.70
2018,04,26,09,03,16.80
2018,04,26,09,04,16.90
2018,04,26,09,05,17.00
2018,04,26,09,06,17.10
2018,04,26,09,07,17.20
2018,04,26,09,08,17.30
2018,04,26,09,09,17.30
2018,04,26,09,10,17.30
2018,04,26,09,11,17.30
2018,04,26,09,12,17.30
2018,04,26,09,13,17.30
2018,04,26,09,14,17.30
2018,04,26,09,15,17.30
2018,04,26,09,16,17.30
2018,04,26,09,17,17.30
2018,04,26,09,18,17.30
2018,04,26,09,19,17.30
2018,04,26,09,20,17.40
2018,04,26,09,21,17.40
2018,04,26,09,22,17.50
2018,04,26,09,23,17.50
2018,04,26,09,24,17.50
2018,04,26,09,25,17.50
2018,04,26,09,26,17.60
2018,04,26,09,27,17.60
2018,04,26,09,28,17.60
2018,04,26,09,29,17.70
2018,04,26,09,30,17.70
2018,04,26,09,31,17.70
2018,04,26,09,32,17.80
2018,04,26,09,33,17.80
2018,04,26,09,34,17.80
2018,04,26,09,35,17.80
2018,04,26,09,36,17.80
2018,04,26,09,37,17.80
2018,04,26,09,38,17.80
2018,04,26,09,39,17.80
2018,04,26,09,40,17.90
2018,04,26,09,41,17.90
2018,04,26,09,42,18.00
2018,04,26,09,43,18.10
2018,04,26,09,44,18.20
2018,04,26,09,45,18.20
2018,04,26,09,46,18.20
2018,04,26,09,47,18.20
2018,04,26,09,48,18.20
2018,04,26,09,49,18.30
2018,04,26,09,50,18.40
2018,04,26,09,51,18.40
2018,04,26,09,52,18.40
2018,04,26,09,53,18.40
2018,04,26,09,54,18.40
2018,04,26,09,55,18.40
2018,04,26,09,56,18.40
2018,04,26,09,57,18.50
2018,04,26,09,58,18.60
2018,04,26,09,59,18.60
2018,04,26,10,00,18.50
2018,04,26,10,01,18.40
2018,04,26,10,02,18.30
2018,04,26,10,03,18.20
2018,04,26,10,04,18.20
2018,04,26,10,05,18.20
2018,04,26,10,06,18.10
2018,04,26,10,07,18.00
2018,04,26,10,08,17.90
2018,04,26,10,09,17.90
2018,04,26,10,10,17.90
2018,04,26,10,11,17.90
2018,04,26,10,12,17.90
2018,04,26,10,13,17.90
2018,04,26,10,14,18.10
2018,04,26,10,15,18.10
2018,04,26,10,16,18.20
2018,04,26,10,17,18.30
2018,04,26,10,18,18.40
2018,04,26,10,19,18.50
2018,04,26,10,20,18.60
2018,04,26,10,21,18.70
2018,04,26,10,22,18.80
2018,04,26,10,23,18.90
2018,04,26,10,24,19.00
2018,04,26,10,25,19.10
2018,04,26,10,26,19.10
2018,04,26,10,27,19.10
2018,04,26,10,28,19.20
2018,04,26,10,29,19.20
2018,04,26,10,30,19.20
2018,04,26,10,31,19.20
2018,04,26,10,32,19.30
2018,04,26,10,33,19.30
2018,04,26,10,34,19.30
2018,04,26,10,35,19.30
2018,04,26,10,36,19.30
2018,04,26,10,37,19.30
2018,04,26,10,38,19.30
2018,04,26,10,39,19.30
2018,04,26,10,40,19.30
2018,04,26,10,41,19.40
2018,04,26,10,42,19.40
2018,04,26,10,43,19.40
2018,04,26,10,44,19.50
2018,04,26,10,45,19.50
2018,04,26,10,46,19.60
2018,04,26,10,47,19.70
2018,04,26,10,48,19.90
2018,04,26,10,49,20.00
2018,04,26,10,50,20.00
2018,04,26,10,51,20.10
2018,04,26,10,52,20.10
2018,04,26,10,53,20.10
2018,04,26,10,54,20.00
2018,04,26,10,55,19.90
2018,04,26,10,56,19.70
2018,04,26,10,57,19.60
2018,04,26,10,58,19.60
2018,04,26,10,59,19.50
2018,04,26,11,00,19.50
2018,04,26,11,01,19.60
2018,04,26,11,02,19.70
2018,04,26,11,03,19.80
2018,04,26,11,04,19.90
2018,04,26,11,05,20.10
2018,04,26,11,06,20.20
2018,04,26,11,07,20.20
2018,04,26,11,08,20.20
2018,04,26,11,09,20.20
2018,04,26,11,10,20.20
2018,04,26,11,11,20.30
2018,04,26,11,12,20.20
2018,04,26,11,13,20.20
2018,04,26,11,14,20.30
2018,04,26,11,15,20.30
2018,04,26,11,16,20.30
2018,04,26,11,17,20.40
2018,04,26,11,18,20.40
2018,04,26,11,19,20.50
2018,04,26,11,20,20.50
2018,04,26,11,21,20.60
2018,04,26,11,22,20.60
2018,04,26,11,23,20.50
2018,04,26,11,24,20.50
2018,04,26,11,25,20.40
2018,04,26,11,26,20.40
2018,04,26,11,27,20.40
2018,04,26,11,28,20.40
2018,04,26,11,29,20.30
2018,04,26,11,30,20.40
2018,04,26,11,31,20.40
2018,04,26,11,32,20.50
2018,04,26,11,33,20.60
2018,04,26,11,34,20.70
2018,04,26,11,35,20.80
2018,04,26,11,36,20.70
2018,04,26,11,37,20.70
2018,04,26,11,38,20.70
2018,04,26,11,39,20.70
2018,04,26,11,40,20.70
2018,04,26,11,41,20.70
2018,04,26,11,42,20.80
2018,04,26,11,43,20.70
2018,04,26,11,44,20.70
2018,04,26,11,45,20.60
2018,04,26,11,46,20.50
2018,04,26,11,47,20.40
2018,04,26,11,48,20.40
2018,04,26,11,49,20.40
2018,04,26,11,50,20.30
2018,04,26,11,51,20.20
2018,04,26,11,52,20.20
2018,04,26,11,53,20.10
2018,04,26,11,54,20.10
2018,04,26,11,55,19.90
2018,04,26,11,56,19.90
2018,04,26,11,57,19.90
2018,04,26,11,58,19.90
2018,04,26,11,59,19.90
2018,04,26,12,00,20.00
2018,04,26,12,01,20.10
2018,04,26,12,02,20.10
2018,04,26,12,03,20.20
2018,04,26,12,04,20.20
2018,04,26,12,05,20.30
2018,04,26,12,06,20.40
2018,04,26,12,07,20.50
2018,04,26,12,08,20.60
2018,04,26,12,09,20.70
2018,04,26,12,10,20.80
2018,04,26,12,11,20.80
2018,04,26,12,12,20.90
2018,04,26,12,13,20.90
2018,04,26,12,14,21.00
2018,04,26,12,15,21.10
2018,04,26,12,16,21.20
2018,04,26,12,17,21.30
2018,04,26,12,18,21.30
2018,04,26,12,19,21.30
2018,04,26,12,20,21.30
2018,04,26,12,21,21.30
2018,04,26,12,22,21.40
2018,04,26,12,23,21.50
2018,04,26,12,24,21.60
2018,04,26,12,25,21.60
2018,04,26,12,26,21.60
2018,04,26,12,27,21.60
2018,04,26,12,28,21.60
2018,04,26,12,29,21.70
2018,04,26,12,30,21.70
2018,04,26,12,31,21.80
2018,04,26,12,32,21.80
2018,04,26,12,33,21.80
2018,04,26,12,34,21.90
2018,04,26,12,35,22.00
2018,04,26,12,36,22.10
2018,04,26,12,37,22.20
2018,04,26,12,38,22.20
2018,04,26,12,39,22.30
2018,04,26,12,40,22.30
2018,04,26,12,41,22.40
2018,04,26,12,42,22.40
2018,04,26,12,43,22.40
2018,04,26,12,44,22.40
2018,04,26,12,45,22.30
2018,04,26,12,46,22.30
2018,04,26,12,47,22.30
2018,04,26,12,48,22.40
2018,04,26,12,49,22.40
2018,04,26,12,50,22.40
2018,04,26,12,51,22.40
2018,04,26,12,52,22.40
2018,04,26,12,53,22.40
2018,04,26,12,54,22.40
2018,04,26,12,55,22.40
2018,04,26,12,56,22.40
2018,04,26,12,57,22.50
2018,04,26,12,58,22.60
2018,04,26,12,59,22.70
2018,04,26,13,00,22.70
2018,04,26,13,01,22.70
2018,04,26,13,02,22.60
2018,04,26,13,03,22.60
2018,04,26,13,04,22.40
2018,04,26,13,05,22.30
2018,04,26,13,06,22.20
2018,04,26,13,07,22.20
2018,04,26,13,08,22.20
2018,04,26,13,09,22.20
2018,04,26,13,10,22.10
2018,04,26,13,11,22.00
2018,04,26,13,12,21.90
2018,04,26,13,13,21.70
2018,04,26,13,14,21.70
2018,04,26,13,15,21.60
2018,04,26,13,16,21.60
2018,04,26,13,17,21.50
2018,04,26,13,18,21.40
2018,04,26,13,19,21.30
2018,04,26,13,20,21.30
2018,04,26,13,21,21.30
2018,04,26,13,22,21.30
2018,04,26,13,23,21.30
2018,04,26,13,24,21.30
2018,04,26,13,25,21.20
2018,04,26,13,26,21.20
2018,04,26,13,27,21.20
2018,04,26,13,28,21.20
2018,04,26,13,29,21.30
2018,04,26,13,30,21.30
2018,04,26,13,31,21.40
2018,04,26,13,32,21.50
2018,04,26,13,33,21.60
2018,04,26,13,34,21.60
2018,04,26,13,35,21.70
2018,04,26,13,36,21.80
2018,04,26,13,37,21.90
2018,04,26,13,38,22.00
2018,04,26,13,39,22.10
2018,04,26,13,40,22.20
2018,04,26,13,41,22.30
2018,04,26,13,42,22.40
2018,04,26,13,43,22.50
2018,04,26,13,44,22.60
2018,04,26,13,45,22.60
2018,04,26,13,46,22.70
2018,04,26,13,47,22.70
2018,04,26,13,48,22.80
2018,04,26,13,49,22.90
2018,04,26,13,50,22.90
2018,04,26,13,51,22.90
2018,04,26,13,52,22.90
2018,04,26,13,53,22.90
2018,04,26,13,54,22.90
2018,04,26,13,55,23.00
2018,04,26,13,56,23.10
2018,04,26,13,57,23.10
2018,04,26,13,58,23.20
2018,04,26,13,59,23.20
2018,04,26,14,00,23.20
2018,04,26,14,01,23.20
2018,04,26,14,02,23.10
2018,04,26,14,03,23.00
2018,04,26,14,04,22.90
2018,04,26,14,05,22.80
2018,04,26,14,06,22.70
2018,04,26,14,07,22.70
2018,04,26,14,08,22.70
2018,04,26,14,09,22.70
2018,04,26,14,10,22.60
2018,04,26,14,11,22.60
2018,04,26,14,12,22.70
2018,04,26,14,13,22.80
2018,04,26,14,14,22.80
2018,04,26,14,15,22.90
2018,04,26,14,16,22.70
2018,04,26,14,17,22.70
2018,04,26,14,18,22.60
2018,04,26,14,19,22.60
2018,04,26,14,20,22.50
2018,04,26,14,21,22.50
2018,04,26,14,22,22.40
2018,04,26,14,23,22.40
2018,04,26,14,24,22.40
2018,04,26,14,25,22.30
2018,04,26,14,26,22.30
2018,04,26,14,27,22.20
2018,04,26,14,28,22.20
2018,04,26,14,29,22.10
2018,04,26,14,30,22.10
2018,04,26,14,31,22.20
2018,04,26,14,32,22.20
2018,04,26,14,33,22.10
2018,04,26,14,34,22.10
2018,04,26,14,35,22.10
2018,04,26,14,36,22.20
2018,04,26,14,37,22.30
2018,04,26,14,38,22.40
2018,04,26,14,39,22.40
2018,04,26,14,40,22.40
2018,04,26,14,41,22.30
2018,04,26,14,42,22.20
2018,04,26,14,43,22.10
2018,04,26,14,44,21.90
2018,04,26,14,45,21.80
2018,04,26,14,46,21.60
2018,04,26,14,47,21.50
2018,04,26,14,48,21.40
2018,04,26,14,49,21.30
2018,04,26,14,50,21.30
2018,04,26,14,51,21.30
2018,04,26,14,52,21.20
2018,04,26,14,53,21.20
2018,04,26,14,54,21.20
2018,04,26,14,55,21.20
2018,04,26,14,56,21.20
2018,04,26,14,57,21.10
2018,04,26,14,58,21.10
2018,04,26,14,59,21.20
2018,04,26,15,00,21.30
2018,04,26,15,01,21.30
2018,04,26,15,02,21.40
2018,04,26,15,03,21.40
2018,04,26,15,04,21.50
2018,04,26,15,05,21.60
2018,04,26,15,06,21.60
2018,04,26,15,07,21.70
2018,04,26,15,08,21.70
2018,04,26,15,09,21.80
2018,04,26,15,10,21.80
2018,04,26,15,11,21.90
2018,04,26,15,12,21.90
2018,04,26,15,13,21.90
2018,04,26,15,14,21.90
2018,04,26,15,15,21.90
2018,04,26,15,16,21.90
2018,04,26,15,17,21.90
2018,04,26,15,18,21.90
2018,04,26,15,19,21.90
2018,04,26,15,20,21.90
2018,04,26,15,21,22.00
2018,04,26,15,22,22.00
2018,04,26,15,23,22.00
2018,04,26,15,24,22.10
2018,04,26,15,25,22.10
2018,04,26,15,26,22.10
2018,04,26,15,27,22.10
2018,04,26,15,28,22.10
2018,04,26,15,29,22.10
2018,04,26,15,30,22.10
2018,04,26,15,31,22.00
2018,04,26,15,32,21.90
2018,04,26,15,33,21.80
2018,04,26,15,34,21.70
2018,04,26,15,35,21.70
2018,04,26,15,36,21.60
2018,04,26,15,37,21.60
2018,04,26,15,38,21.50
2018,04,26,15,39,21.40
2018,04,26,15,40,21.30
2018,04,26,15,41,21.20
2018,04,26,15,42,21.10
2018,04,26,15,43,21.10
2018,04,26,15,44,21.10
2018,04,26,15,45,21.10
2018,04,26,15,46,21.10
2018,04,26,15,47,21.10
2018,04,26,15,48,21.20
2018,04,26,15,49,21.30
2018,04,26,15,50,21.30
2018,04,26,15,51,21.40
2018,04,26,15,52,21.60
2018,04,26,15,53,21.60
2018,04,26,15,54,21.70
2018,04,26,15,55,21.80
2018,04,26,15,56,21.90
2018,04,26,15,57,22.10
2018,04,26,15,58,22.20
2018,04,26,15,59,22.30
2018,04,26,16,00,22.40
2018,04,26,16,01,22.60
2018,04,26,16,02,22.70
2018,04,26,16,03,22.70
2018,04,26,16,04,22.80
2018,04,26,16,05,22.80
2018,04,26,16,06,22.80
2018,04,26,16,07,22.80
2018,04,26,16,08,22.90
2018,04,26,16,09,22.90
2018,04,26,16,10,22.90
2018,04,26,16,11,22.90
2018,04,26,16,12,23.10
2018,04,26,16,13,23.10
2018,04,26,16,14,23.10
2018,04,26,16,15,23.10
2018,04,26,16,16,23.10
2018,04,26,16,17,23.10
2018,04,26,16,18,23.20
2018,04,26,16,19,23.20
2018,04,26,16,20,23.20
2018,04,26,16,21,23.20
2018,04,26,16,22,23.20
2018,04,26,16,23,23.30
2018,04,26,16,24,23.40
2018,04,26,16,25,23.40
2018,04,26,16,26,23.60
2018,04,26,16,27,23.60
2018,04,26,16,28,23.60
2018,04,26,16,29,23.60
2018,04,26,16,30,23.60
2018,04,26,16,31,23.60
2018,04,26,16,32,23.60
2018,04,26,16,33,23.60
2018,04,26,16,34,23.70
2018,04,26,16,35,23.70
2018,04,26,16,36,23.70
2018,04,26,16,37,23.70
2018,04,26,16,38,23.70
2018,04,26,16,39,23.70
2018,04,26,16,40,23.70
2018,04,26,16,41,23.70
2018,04,26,16,42,23.80
2018,04,26,16,43,23.80
2018,04,26,16,44,23.70
2018,04,26,16,45,23.70
2018,04,26,16,46,23.70
2018,04,26,16,47,23.70
2018,04,26,16,48,23.60
2018,04,26,16,49,23.40
2018,04,26,16,50,23.30
2018,04,26,16,51,23.00
2018,04,26,16,52,22.80
2018,04,26,16,53,22.60
2018,04,26,16,54,22.30
2018,04,26,16,55,22.10
2018,04,26,16,56,21.90
2018,04,26,16,57,21.70
2018,04,26,16,58,21.50
2018,04,26,16,59,21.40
2018,04,26,17,00,21.30
2018,04,26,17,01,21.30
2018,04,26,17,02,21.30
2018,04,26,17,03,21.30
2018,04,26,17,04,21.30
2018,04,26,17,05,21.30
2018,04,26,17,06,21.30
2018,04,26,17,07,21.30
2018,04,26,17,08,21.30
2018,04,26,17,09,21.30
2018,04,26,17,10,21.20
2018,04,26,17,11,21.20
2018,04,26,17,12,21.00
2018,04,26,17,13,20.90
2018,04,26,17,14,20.80
2018,04,26,17,15,20.70
2018,04,26,17,16,20.60
2018,04,26,17,17,20.50
2018,04,26,17,18,20.40
2018,04,26,17,19,20.30
2018,04,26,17,20,20.20